Location: Arclight Observatory
(36.5667°N, 87.3333°W)
Time: 03:14:53
(UTC-05:00)

Daily predictions for brighter satellites

Satellite Brightness Start Highest point End
(mag) Time Altitude Azimuth Time Altitude Azimuth Time Altitude Azimuth
ATLAS 3B R/B 4.0 01:56:06 38° NNW 01:56:06 38° NNW 02:01:16 10° NNE
CZ-4C R/B 3.9 02:33:52 29° N 02:33:52 29° N 02:36:57 10° NNE
Cosmos 2369 Rocket 4.0 02:35:45 10° N 02:40:26 27° ENE 02:41:29 25° ENE
ARIANE 5 R/B 4.4 02:37:26 10° NE 02:40:24 25° ENE 02:40:24 25° ENE
USA 234 3.7 02:42:51 10° NE 02:47:57 53° ENE 02:47:57 53° ENE
SL-16 R/B 3.6 02:52:07 35° E 02:53:25 39° ENE 02:59:05 10° N
SL-16 R/B 4.2 03:00:59 18° NNW 03:00:59 18° NNW 03:03:17 10° N
Resurs 1-4 Rocket 3.5 02:54:51 10° NNE 02:58:42 33° ENE 02:58:42 33° ENE
NOSS 3-2 (A) 4.1 03:04:36 51° N 03:04:36 51° N 03:09:43 10° NNE
NOSS 3-3 (A) 4.5 03:08:50 10° NNW 03:16:24 79° ENE 03:24:23 10° SE
NOSS 3-3 (C) 4.5 03:08:56 10° NNW 03:16:29 78° ENE 03:24:29 10° SE
CENTAUR R/B 3.6 03:19:17 32° ESE 03:19:54 33° ESE 03:25:38 10° NE
NOSS 3-2 (C) 3.8 03:20:58 56° NNW 03:20:58 56° NNW 03:26:42 10° NNE
ATLAS 5 CENTAUR R/B 2.5 03:33:28 52° ENE 03:33:28 52° ENE 03:37:32 10° NE
Meteor 2-10 4.1 03:45:55 81° NNW 03:45:55 81° NNW 03:51:08 10° N
UNKNOWN OBJECT B 4.5 03:42:14 10° NNE 03:44:15 30° NNE 03:44:15 30° NNE
Cosmos 839 Rocket 4.1 03:39:32 10° NNW 03:47:26 76° WSW 03:49:55 42° S
Cosmos 1869 4.4 03:50:14 43° NE 03:50:14 43° NE 03:53:19 10° NNE
Okean O Rocket 2.5 03:58:39 10° NNE 04:02:58 47° E 04:04:08 38° SE
CZ-2D R/B 3.6 03:58:52 10° NNE 04:03:05 77° ENE 04:03:05 77° ENE
Meteor 2-3 Rocket 4.3 03:57:49 10° NNW 04:02:15 42° WNW 04:02:15 42° WNW
CZ-2D R/B 2.3 04:00:20 10° N 04:05:16 53° WNW 04:05:16 53° WNW
Cosmos 1302 Rocket 3.8 04:01:32 10° NNW 04:06:48 80° WSW 04:07:50 58° S
Atlas Centaur 2 3.7 04:07:31 15° SE 04:07:31 15° SE 04:09:52 10° ESE
Cosmos 2315 Rocket 4.0 04:07:43 54° WSW 04:08:37 60° W 04:14:49 10° N
MOS 1-B 4.2 04:03:06 10° N 04:08:51 74° WNW 04:10:06 55° SW
Cosmos 1943 4.1 04:11:14 33° WNW 04:11:15 33° WNW 04:16:19 10° N
IRS-1D 4.3 04:06:44 10° N 04:11:09 38° WNW 04:11:09 38° WNW
COSMOS 2406 3.8 04:08:57 30° S 04:11:35 55° ESE 04:17:13 10° NNE
Cosmos 389 Rocket 3.0 04:17:29 54° NNE 04:17:29 54° NNE 04:20:15 10° N
Sich 1 Rocket 4.2 04:13:39 10° N 04:17:59 56° E 04:22:01 12° SSE
ARIANE 5 R/B 3.6 04:16:35 10° N 04:20:44 29° WNW 04:20:44 29° WNW
Cosmos 1184 Rocket 4.0 04:20:31 10° N 04:22:41 36° NNW 04:22:41 36° NNW
Cosmos 2369 Rocket 3.0 04:19:21 10° NW 04:23:06 33° WNW 04:23:06 33° WNW
Cosmos 1455 3.5 04:26:13 29° NW 04:26:13 29° NW 04:28:39 10° N
SeaSat 1 2.5 04:21:43 10° SSE 04:26:38 81° ENE 04:31:35 10° NNW
CZ-4B R/B 3.2 04:24:15 10° NNE 04:29:32 73° ESE 04:33:13 20° S
USA 234 4.1 04:26:12 10° NNE 04:32:04 36° NNW 04:35:18 23° W
PSLV R/B 3.7 04:32:06 10° N 04:35:50 64° WNW 04:36:16 58° WSW
SL-16 R/B 3.3 04:37:13 29° W 04:37:13 29° W 04:42:22 10° NW
Resurs 1-4 Rocket 3.2 04:35:03 10° NNW 04:39:18 25° WNW 04:39:46 25° WNW
Cosmos 1862 Rocket 4.1 04:40:57 36° W 04:41:05 36° W 04:45:10 10° N
CZ-2C R/B 3.5 04:38:14 10° S 04:42:40 75° WSW 04:47:06 10° NNW
GPS 2-05 Rocket1 4.2 04:43:30 25° SSE 04:43:47 25° SSE 04:46:33 10° E
Cosmos 1174 4.4 04:44:16 29° SW 04:47:06 73° WNW 04:51:42 10° NNE
Cosmos 1943 Rocket 2.1 04:41:51 10° NNW 04:47:27 62° WSW 04:52:59 10° S
Cosmos 1190 Rocket 4.2 04:45:56 13° S 04:50:32 70° ESE 04:55:43 10° NNE
Thor Agena Rocket 3.6 04:47:26 10° SSE 04:52:33 82° ENE 04:57:46 10° NNW
ADEOS II 2.9 04:48:50 10° NNE 04:53:58 52° E 04:59:04 10° S
Okean 1-7 3.4 04:49:54 10° S 04:54:09 66° E 04:58:27 10° NNE
Okean 2 Rocket 3.8 04:51:06 10° N 04:55:33 55° E 04:59:59 10° SSE
Nadezhda 1 Rocket 3.9 04:49:41 10° SSW 04:55:54 75° W 05:02:15 10° N
Cosmos 1408 2.5 04:52:42 10° NNW 04:56:26 69° W 05:00:09 10° S
SL-27 R/B 3.5 05:00:36 27° W 05:01:09 28° WNW 05:04:21 10° N
Aureole 3 Rocket 4.0 04:54:20 10° S 05:01:55 81° W 05:07:15 10° N
Cosmos 1992 Rocket 3.9 04:56:56 10° NNW 05:02:12 83° WSW 05:07:25 10° SSE
PAYLOAD B 4.4 04:56:50 10° N 05:02:12 53° WNW 05:06:30 16° SW
USA 32 4.0 04:57:45 10° SSW 05:02:56 67° W 05:08:10 10° N
Cosmos 1825 2.2 05:00:28 10° NNW 05:04:10 52° W 05:07:50 10° S
Centaur D-1A AC-31 2.7 04:58:25 19° WSW 05:04:35 39° SSW 05:08:21 10° SE
MOZ.5/SAFIR/RUBIN 5/SL-8 4.2 05:01:11 10° SSW 05:05:24 38° W 05:09:44 10° NNW
ADEOS Rocket 3.7 04:59:56 10° NNE 05:07:45 85° ESE 05:15:26 10° SSW
Cosmos 1733 Rocket 4.5 05:06:11 10° NW 05:09:12 19° W 05:09:12 19° W
CENTAUR R/B 3.2 05:06:29 20° WSW 05:10:20 40° NW 05:16:43 10° NNE
ATLAS 5 CENTAUR R/B 3.7 05:15:02 12° WNW 05:17:42 17° NW 05:21:09 10° N
Cosmos 1782 Rocket 3.5 05:13:25 10° NNW 05:17:43 63° W 05:21:59 10° S
BREEZE-M DEB (TANK) 4.3 05:13:49 10° WNW 05:18:14 71° SW 05:32:05 10° SE
Cosmos 1862 4.0 05:14:50 10° NNW 05:18:23 32° W 05:21:54 10° SSW
Cosmos 1656 Rocket 3.5 05:13:20 10° NNW 05:18:44 74° WSW 05:24:06 10° SSE
NAVSTAR 52 R/B(PAM-D 3.8 05:19:07 24° NW 05:19:46 35° N 05:21:21 10° ENE
AVUM R/B 3.1 05:17:06 13° SSW 05:19:52 88° ESE 05:23:12 10° NNE
PSLV R/B 4.1 05:20:07 10° WNW 05:23:29 49° NNE 05:26:48 10° E
Centaur D-1AR AC-36 4.2 05:20:46 10° SW 05:25:47 16° S 05:28:35 10° SSE
Cosmos 2154 Rocket 4.0 05:19:32 10° N 05:25:52 75° W 05:32:10 10° S
Meteor 1-26 Rocket 4.4 05:20:49 10° SSW 05:26:33 62° W 05:32:24 10° N
Cosmos 676 Rocket 4.0 05:23:01 10° SSW 05:28:12 89° WNW 05:33:25 10° NNE
Feng Yun 1-1 Rocket 4.1 05:24:00 10° N 05:29:23 75° WNW 05:34:48 10° SSW
CZ-4B R/B 4.2 05:30:43 10° NNW 05:33:21 19° WNW 05:35:41 12° WSW
Meteor 1-14 Rocket 4.3 05:32:13 10° NNW 05:38:02 71° W 05:43:56 10° S
COSMO-SKYMED 1 4.5 05:34:22 10° SE 05:38:20 35° ENE 05:42:17 10° N
Okean O Rocket 3.5 05:36:27 10° NNW 05:38:55 15° WNW 05:41:23 10° W
Okean-O 3.2 05:40:22 10° N 05:44:29 38° WNW 05:48:36 10° SW
Cosmos 407 Rocket 4.0 05:41:53 10° SW 05:46:48 42° WNW 05:51:48 10° N
Cosmos 2341 Rocket 4.1 05:40:54 10° NNW 05:47:08 65° W 05:53:22 10° S
Atlas Centaur 2 2.9 05:50:56 10° SW 05:55:15 37° SSE 06:00:39 10° ESE
SL-8 Rocket 4.1 05:49:51 10° N 05:56:05 87° E 06:02:20 10° S
